Flag for Canada Weather past 2 weeks in Sidney, British Columbia, Canada

Now
75 °F

Sunny.


Feels Like: 77 °F
Forecast: 52 / 74 °F
Wind: 3 mph from East

Location: Victoria Int. Airportb. C.

Current Time: Sep 14, 2014 at 7:12:42 PM

Latest Report: Sep 14, 2014 at 6:00 PM


Visibility: 30 mi

Pressure: 29.86 "Hg

Humidity: 34%

Dew point: 45 °F

Location of SidneyLocation

Historic Weather in Sidney — Graph

°F

Sidney temperature yesterday

Maximum temperature yesterday: 79 °F (at 5:00 PM)
Minimum temperature yesterday: 50 °F (at 1:00 AM)
Average temperature yesterday: 63 °F

Past Weeks' High & Low Weather Summary

 TemperatureHumidityPressure
High81 °F (Sep 6, 3:00 PM)100% (Sep 2, 3:47 PM)30.34 "Hg (Sep 2, 3:47 PM)
Low45 °F (Sep 12, 4:00 AM)19% (Sep 11, 4:00 PM)29.78 "Hg (Sep 7, 7:00 PM)
Average60 °F68%30.02 "Hg
* Reported Aug 30 6:00 PM — Sep 14 6:00 PM, Sidney, Weather by CustomWeather, © 2014

Note: Actual official high and low records may vary slightly from our data, if they occured in-between our weather recording intervals... More about our weather records

Advertising

Sidney weather history for previous 24 hours

 ConditionsComfort  
Time TempWeatherWind HumidityBarometerVisibility
6:00 PM
Sep 14
75 °FSunny.3 mph34%29.86 "Hg30 mi
5:00 PM77 °FSunny.5 mph32%29.87 "Hg30 mi
4:00 PM77 °FSunny.7 mph34%29.88 "Hg30 mi
3:00 PM75 °FSunny.6 mph39%29.90 "Hg30 mi
2:00 PM75 °FSunny.7 mph34%29.91 "Hg30 mi
1:00 PM75 °FSunny.7 mph34%29.92 "Hg30 mi
12:00 PM73 °FSunny.2 mph33%29.93 "Hg30 mi
11:00 AM70 °FSunny.5 mph38%29.94 "Hg30 mi
10:00 AM66 °FSunny.3 mph46%29.95 "Hg30 mi
9:00 AM61 °FSunny.6 mph52%29.94 "Hg30 mi
8:00 AM57 °FSunny.2 mph67%29.93 "Hg30 mi
7:00 AM52 °FClear.5 mph72%29.92 "Hg30 mi
6:00 AM52 °FClear.7 mph72%29.92 "Hg30 mi
5:00 AM48 °FClear.7 mph82%29.91 "Hg30 mi
4:00 AM54 °FClear.5 mph72%29.90 "Hg30 mi
3:00 AM54 °FClear.8 mph72%29.90 "Hg30 mi
2:00 AM50 °FClear.7 mph76%29.90 "Hg30 mi
1:00 AM54 °FClear.6 mph72%29.89 "Hg30 mi
12:00 AM54 °FClear.5 mph67%29.88 "Hg30 mi
11:00 PM
Sep 13
59 °FClear.7 mph59%29.87 "Hg30 mi
10:00 PM59 °FPassing clouds.3 mph59%29.87 "Hg30 mi
9:00 PM57 °FPassing clouds.3 mph59%29.87 "Hg30 mi
8:00 PM63 °FPassing clouds.5 mph49%29.86 "Hg30 mi
7:00 PM73 °FPassing clouds.3 mph31%29.87 "Hg30 mi
Weather by CustomWeather, © 2014

See weather overviewHow to use our weather pages